Simultaneous Nadir Overpasses (SNOs) Predictions

Prediction of SNOs between METOP-B and NOAA-19 Satellite Orbit:

Table of predicted SNOs for the next 14.0 days since TLE Epoch: 2/20/2016
Index Date (METOP-B) Time (METOP-B) Lat,Lon (METOP-B) SZA (METOP-B ) Date (NOAA-19) Time (NOAA-19) Lat,Lon (NOAA-19) SZA (NOAA-19 ) Distance(km) Time Diff (sec)
1 03/01/2016 02:48:41 76.09, 138.02 83.49 03/01/2016 02:47:31 76.12, 136.12 83.55 50.85 70
2 03/01/2016 03:39:28 -75.84, -55.50 96.77 03/01/2016 03:38:20 -75.84, -55.64 96.76 3.83 68
3 03/01/2016 04:30:09 75.79, 111.68 83.18 03/01/2016 04:29:26 75.79, 111.76 83.18 2.13 43
4 03/01/2016 05:20:50 -75.82, -80.91 96.82 03/01/2016 05:20:21 -75.79, -80.96 96.84 3.36 29
5 03/01/2016 06:11:31 75.77, 86.27 83.13 03/01/2016 06:11:28 75.78, 86.29 83.14 1.35 3
6 03/01/2016 07:02:12 -75.80,-106.32 96.87 03/01/2016 07:02:23 -75.78,-106.43 96.88 3.48 11
7 03/01/2016 07:52:53 75.75, 60.86 83.08 03/01/2016 07:53:30 75.77, 60.81 83.10 3.06 37
8 03/01/2016 08:43:35 -75.73,-131.88 96.96 03/01/2016 08:44:24 -75.73,-131.75 96.97 3.52 49
9 03/01/2016 09:34:17 75.63, 35.15 82.94 03/01/2016 09:35:30 75.67, 35.65 82.97 14.29 73




NCC Satellite Simultaneous Nadir Overpasses (SNOs) Prediction Service
